FW7632 Weather Reports


Display with metric or nautical units.
time (UTC)temp
F
wind
direction
speed
MPH
gust
MPH
rain 1hr
in
rain 24hr
in
rain mn
in
humidity
%
barometer
mb
20260504211512 76 202 5.0 14.0 0.00 0.00 0.00 29 1003.8
20260504210012 77 206 4.0 9.0 0.00 0.00 0.00 30 1004.1
20260504204528 76 223 3.0 15.0 0.00 0.00 0.00 29 1004.2
20260504203010 76 221 3.0 15.0 0.00 0.00 0.00 29 1004.5
20260504201506 77 255 3.0 11.0 0.00 0.00 0.00 28 1004.6
20260504200004 76 226 3.0 13.0 0.00 0.00 0.00 30 1004.9
20260504194604 75 209 7.0 14.0 0.00 0.00 0.00 30 1005.0
20260504193059 73 232 5.0 14.0 0.00 0.00 0.00 32 1005.1
20260504191601 74 241 4.0 13.0 0.00 0.00 0.00 31 1005.4
20260504190055 75 238 5.0 14.0 0.00 0.00 0.00 30 1005.5
20260504184556 75 232 7.0 14.0 0.00 0.00 0.00 31 1005.7
20260504183049 72 223 5.0 19.0 0.00 0.00 0.00 32 1005.8
20260504181548 73 220 8.0 16.0 0.00 0.00 0.00 32 1005.9
20260504180045 72 208 6.0 19.0 0.00 0.00 0.00 32 1006.0
20260504174545 73 222 5.0 16.0 0.00 0.00 0.00 34 1006.2
20260504173042 73 196 5.0 14.0 0.00 0.00 0.00 32 1006.4
20260504171545 73 231 7.0 16.0 0.00 0.00 0.00 32 1006.4
20260504081509 48 242 3.0 7.0 0.00 0.00 0.00 52 1009.9
20260504044556 46 286 0.0 2.0 0.00 0.00 0.00 51 1010.1
20260504043052 47 286 0.0 1.0 0.00 0.00 0.00 51 1010.1
20260504041543 48 286 0.0 2.0 0.00 0.00 0.00 53 1010.1
20260504040054 48 284 0.0 1.0 0.00 0.00 0.00 54 1010.1
20260504034538 48 285 0.0 2.0 0.00 0.00 0.00 53 1010.0
20260504033029 49 286 0.0 2.0 0.00 0.00 0.00 53 1010.1
20260504031528 50 262 0.0 1.0 0.00 0.00 0.00 53 1010.1
20260504030023 50 283 0.0 1.0 0.00 0.00 0.00 53 1010.2
20260504024516 50 283 1.0 2.0 0.00 0.00 0.00 53 1010.1
20260504023012 50 280 0.0 2.0 0.00 0.00 0.00 52 1010.4
20260504021511 51 279 1.0 2.0 0.00 0.00 0.00 53 1010.3
20260504020004 51 279 0.0 2.0 0.00 0.00 0.00 52 1010.4
20260504014608 52 271 1.0 2.0 0.00 0.00 0.00 50 1010.2
20260504013056 54 280 1.0 2.0 0.00 0.00 0.00 47 1010.2
20260504011550 54 286 0.0 4.0 0.00 0.00 0.00 44 1010.2
20260504010045 55 273 2.0 7.0 0.00 0.00 0.00 42 1009.9
20260504004541 55 276 2.0 9.0 0.00 0.00 0.00 41 1009.8
20260504003036 55 270 2.0 6.0 0.00 0.00 0.00 42 1009.8
20260504001532 55 257 2.0 7.0 0.00 0.00 0.00 42 1009.5
20260504000028 55 246 3.0 6.0 0.00 0.00 0.00 41 1009.3
20260503234526 56 222 2.0 4.0 0.00 0.00 0.00 40 1009.3
20260503233019 56 278 2.0 5.0 0.00 0.00 0.00 39 1009.2
20260503231520 56 278 3.0 6.0 0.00 0.00 0.00 39 1009.2
20260503230013 56 250 1.0 7.0 0.00 0.00 0.00 39 1009.2
20260503224507 56 263 2.0 8.0 0.00 0.00 0.00 38 1009.3
20260503223004 57 266 2.0 7.0 0.00 0.00 0.00 37 1009.3
20260503221602 58 268 3.0 9.0 0.00 0.00 0.00 36 1009.4
20260503220053 58 297 2.0 8.0 0.00 0.00 0.00 37 1009.6
20260503214559 58 349 2.0 9.0 0.00 0.00 0.00 37 1009.6
20260503213047 58 299 4.0 9.0 0.00 0.00 0.00 38 1009.7